CZ-3B DEB, 39333

Orbit data source: Space-Track

CZ-3B DEB, 39333 is space debris in HEO originally from a launch on Sat, 04 Sep 2010 UTC launched from the Xichang Space Center, China (XSC). Debris objects in space refer to the collection of defunct objects orbiting the Earth. Examples of debris include non-operational satellites, rocket bodies, and fragments generated from explosions, collisions, or faulty payload assembly.

Loading next visibility...
Identifier
39333, 2010-042E
Orbit
HEO
Country
Flag of CNCN / PRC
Related business
Manufacturer
CALT
Mission
Spacecraft
Bus & Motor
Unknown
Mass
Unknown
Launch date (UTC)
2010-09-04 (16 years ago)
Launch vehicle
Unknown
Launch site
Xichang Space Center, China (XSC)
Object type
Payload
Rocket body
Debris
Shape & HBR
Unknown shape, 0.3 m
Radar Cross Section
Medium (>0.1 m² and <1 m²)

Expand to show TLE details & history
Last TLE update: 12 hours ago

TLE from 12 hours ago
0 CZ-3B DEB
1 39333U 10042E   26192.07879345  .00000086  00000-0  40917-2 0  9998
2 39333  24.5322  11.4703 7454513 147.2755 309.5556  1.91268567 90576
Epoch: 2026-07-11T01:53Z
TLE epoch observation values (Epoch: 2026-07-11T01:53:27.754Z)
Latitude
2.94908°
Longitude
60.59484°
Altitude
22,053.422 km
Speed
3.674 km/s
True Right ascension
01h 11m 49s
True Declination
2° 56' 41"
Sunlit
Object was in daylight at epoch
Visualization orbit readout
Latitude
Unknown
Longitude
Unknown
Altitude
Unknown
Speed
Unknown
Apparent Right ascension
Unknown
Apparent Declination
Unknown
Sunlit
N/A
Visualization observer readout
Local Sidereal Time
02:19:35
Azimuth
Unknown
Elevation
Unknown
Doppler factor
Unknown
Orbital elements
Apogee altitude
41,478.755 km
Perigee altitude
601.095 km
Semi-major axis
27,418.062 km
Eccentricity
0.74545
Inclination
24.5322°
RAAN
11.4703°
Arg. of periapsis
147.2755°
True anomaly
219.7806°
Mean anomaly
309.5556°
Eccentric anomaly
266.90662°
Mean motion
0.47807 °/min
Orbital period
753.03 mins
BSTAR
0.0040917
Loading maneuver chart data...
Computing Atmospheric mass density...
Loading historical data...
Loading historical data...
Loading historical data...
Loading historical data...
Loading historical data...
Loading historical data...
Loading historical data...

Documentation

Showing up to 5 results
|